Content
SEND FEEDBACK

Daily
Averages
Monthly
Summary
United States of America

CHICAGO, ILLINOIS


Home > North America > United States > Illinois
Elevation: 674 feet     Latitude: 41 59N     Longitude: 087 54W

WEATHER
 
SELECT A DAY
Number of Records: 198,084;   Date Range: 7/8/95 - 10/30/14
 
SHARE

PRINT THIS DATA

[ ← Previous Day ]
WEATHER ALMANAC - MARCH 12, 2013
[ Next Day → ]
[ °C ]   °F
Weather ElementAverageHighLow
Temperature30.2 °F35.1 °F (3:52 pm)26.1 °F (10:52 pm)
Dewpoint25.3 °F28.9 °F (12:52 am)21 °F (11:52 pm)
Humidity82.3 %93 % (5:59 am)64 % (11:52 am)
Barometer29.92 in30.03 in (11:52 pm)29.81 in (12:52 am)
Wind Speed11.1 mph17.3 mph (12:52 pm)
Wind Gust26.5 mph (4:52 pm)
Weather ElementAverage
Visibility5.2 mi
Wind DirectionW (272.5 °)

Weather ElementTotal
Precipitation0.02 in
Heating Degree Days34.4 (Base 65)
Averaged from 51 records on March 12, 2013
WEATHER CONDITIONS BREAKOUT
WIND DIRECTION BREAKOUT
WEATHER BY HOUR - MARCH 12, 2013
[ °C ]   °F
Local TimeTemperatureDewpointHumidityBarometerVisibilityWind DirectionWind SpeedGust SpeedPrecipitationEventsConditions
12:52 AM32.0 °F28.9 °F88 %29.81 in8.0 miWest (280°)10.4 mph20.7 mphOvercast
1:33 AM32.0 °F28.4 °F87 %29.81 in9.0 miWest (270°)10.4 mphOvercast
1:52 AM32.0 °F28.0 °F85 %29.83 in10.0 miWest (270°)9.2 mphOvercast
2:52 AM32.0 °F28.0 °F85 %29.84 in9.0 miWest (270°)8.1 mphOvercast
3:52 AM30.9 °F26.1 °F82 %29.85 in10.0 miWest (280°)6.9 mphOvercast
4:34 AM30.2 °F26.6 °F86 %29.84 in1.8 miWSW (250°)10.4 mph0.00 inSnowLight Snow
4:52 AM30.0 °F27.0 °F88 %29.86 in2.0 miWest (270°)9.2 mph0.00 inSnowLight Snow
5:02 AM30.2 °F26.6 °F86 %29.85 in4.0 miWest (270°)13.8 mph19.6 mph0.00 inSnowLight Snow
5:16 AM30.2 °F26.6 °F86 %29.85 in2.0 miWest (260°)9.2 mph0.00 inSnowLight Snow
5:27 AM30.2 °F26.6 °F86 %29.86 in1.5 miWest (260°)6.9 mph0.00 inSnowLight Snow
5:38 AM30.2 °F26.6 °F86 %29.86 in1.2 miWest (260°)6.9 mph0.00 inSnowLight Snow
5:52 AM28.9 °F26.1 °F89 %29.88 in1.8 miWest (260°)9.2 mph0.00 inSnowLight Snow
5:59 AM28.4 °F26.6 °F93 %29.87 in2.0 miWest (270°)10.4 mph17.3 mph0.00 inSnowLight Snow
6:33 AM28.4 °F26.6 °F93 %29.87 in2.5 miWSW (250°)10.4 mph0.00 inSnowLight Snow
6:52 AM28.9 °F26.1 °F89 %29.90 in4.0 miWest (260°)6.9 mph0.00 inOvercast
7:52 AM28.9 °F24.1 °F82 %29.91 in9.0 miWest (260°)8.1 mphOvercast
8:52 AM28.9 °F23.0 °F78 %29.92 in10.0 miWNW (290°)11.5 mph18.4 mphOvercast
9:52 AM30.0 °F23.0 °F75 %29.92 in10.0 miWest (260°)9.2 mphScattered Clouds
10:52 AM32.0 °F21.9 °F66 %29.93 in10.0 miWSW (250°)12.7 mph18.4 mph0.02 inClear
11:52 AM33.1 °F21.9 °F64 %29.92 in10.0 miWSW (250°)13.8 mph21.9 mphClear
12:52 PM33.1 °F21.9 °F64 %29.92 in10.0 miWest (270°)17.3 mph23.0 mphOvercast
1:52 PM33.1 °F21.9 °F64 %29.92 in10.0 miWest (270°)13.8 mph23.0 mphOvercast
2:52 PM34.0 °F24.1 °F67 %29.92 in10.0 miWest (270°)12.7 mph21.9 mphOvercast
3:52 PM35.1 °F25.0 °F67 %29.91 in8.0 miWest (260°)8.1 mph17.3 mph0.00 inOvercast
4:52 PM32.0 °F27.0 °F82 %29.93 in0.2 miNW (310°)16.1 mph26.5 mph0.00 inSnowHeavy Snow
4:59 PM30.2 °F28.4 °F93 %29.90 in0.2 miWNW (300°)15.0 mph21.9 mph0.00 inFog-SnowSnow
5:09 PM30.2 °F28.4 °F93 %29.90 in0.2 miWNW (300°)13.8 mph0.00 inFog-SnowSnow
5:14 PM30.2 °F28.4 °F93 %29.91 in0.2 miWNW (290°)12.7 mph20.7 mph0.00 inFog-SnowSnow
5:27 PM30.2 °F28.4 °F93 %29.90 in1.2 miWest (260°)8.1 mph17.3 mph0.00 inSnowLight Snow
5:29 PM32.0 °F28.4 °F87 %29.90 in3.0 miWest (260°)6.9 mph17.3 mph0.00 inSnowLight Snow
5:37 PM33.8 °F26.6 °F75 %29.90 in9.0 miWest (260°)13.8 mph21.9 mph0.00 inOvercast
5:52 PM33.1 °F26.1 °F75 %29.93 in7.0 miWSW (250°)12.7 mph20.7 mph0.00 inOvercast
6:29 PM32.0 °F28.4 °F87 %29.91 in2.5 miWSW (240°)12.7 mph19.6 mph0.00 inSnowLight Snow
6:35 PM32.0 °F28.4 °F87 %29.91 in2.0 miWSW (250°)10.4 mph19.6 mph0.00 inSnowLight Snow
6:52 PM30.9 °F28.9 °F92 %29.94 in2.0 miWSW (240°)8.1 mph0.00 inSnowLight Snow
7:07 PM30.2 °F28.4 °F93 %29.92 in7.0 miWest (270°)16.1 mph23.0 mph0.00 inOvercast
7:21 PM30.2 °F26.6 °F86 %29.93 in5.0 miWNW (290°)13.8 mph25.3 mph0.00 inSnowLight Snow
7:30 PM30.2 °F24.8 °F80 %29.93 in8.0 miWNW (290°)16.1 mph25.3 mph0.00 inOvercast
7:52 PM30.0 °F25.0 °F82 %29.96 in3.0 miWest (280°)11.5 mph0.00 inSnowLight Snow
8:07 PM30.2 °F24.8 °F80 %29.95 in5.0 miWNW (290°)12.7 mph18.4 mph0.00 inSnowLight Snow
8:26 PM30.2 °F21.2 °F69 %29.95 in10.0 miWNW (300°)11.5 mph0.00 inOvercast
8:52 PM28.9 °F21.9 °F75 %29.99 in4.0 miWNW (290°)12.7 mph23.0 mph0.00 inSnowLight Snow
9:32 PM28.4 °F21.2 °F74 %29.98 in10.0 miWest (280°)9.2 mph0.00 inOvercast
9:48 PM28.4 °F21.2 °F74 %29.98 in8.0 miWNW (290°)16.1 mph21.9 mph0.00 inOvercast
9:52 PM28.0 °F21.9 °F78 %30.01 in7.0 miWest (280°)11.5 mph21.9 mph0.00 inSnowLight Snow
10:30 PM26.6 °F23.0 °F86 %29.99 in3.0 miWNW (300°)9.2 mph0.00 inSnowLight Snow
10:34 PM26.6 °F23.0 °F86 %29.99 in1.8 miWNW (290°)12.7 mph0.00 inSnowLight Snow
10:52 PM26.1 °F23.0 °F88 %30.02 in1.5 miWest (280°)8.1 mph0.00 inSnowLight Snow
11:02 PM26.6 °F23.0 °F86 %30.00 in2.5 miWest (280°)10.4 mph0.00 inSnowLight Snow
11:10 PM26.6 °F23.0 °F86 %30.00 in3.0 miWest (280°)8.1 mph0.00 inSnowLight Snow
11:52 PM26.1 °F21.0 °F81 %30.03 in5.0 miWNW (290°)9.2 mph18.4 mph0.00 inSnowLight Snow
Hourly data recorded from KPWK, located miles away from Chicago, Illinois







STORIES FROM OUR PARTNERS